Time,TemperatureF,DewpointF,PressureIn,WindDirection,WindDirectionDegrees,WindSpeedMPH,WindSpeedGustMPH,Humidity,HourlyPrecipIn,Conditions,Clouds,dailyrainin,SoftwareType,DateUTC
2013-03-11 00:02:00,54.0,43.0,29.73,SSW,195,21.0,26.0,66,0.00,,,0.02,,2013-03-11 04:02:00,
2013-03-11 00:12:00,54.0,43.0,29.73,SSW,195,21.0,26.0,66,0.00,,,0.02,,2013-03-11 04:12:00,
2013-03-11 00:22:00,54.0,43.0,29.73,South,188,16.0,21.0,67,0.00,,,0.02,,2013-03-11 04:22:00,
2013-03-11 00:32:00,53.0,44.0,29.72,South,179,13.0,16.0,71,0.00,,,0.02,,2013-03-11 04:32:00,
2013-03-11 00:43:00,53.0,44.0,29.72,South,179,13.0,16.0,71,0.00,,,0.02,,2013-03-11 04:43:00,
2013-03-11 00:53:00,52.0,43.0,29.72,SSE,162,11.0,15.0,71,0.00,,,0.02,,2013-03-11 04:53:00,
2013-03-11 01:03:00,52.0,43.0,29.71,SSE,158,10.0,14.0,71,0.00,,,0.02,,2013-03-11 05:03:00,
2013-03-11 01:12:00,52.0,43.0,29.71,SSE,158,10.0,14.0,71,0.00,,,0.02,,2013-03-11 05:12:00,
2013-03-11 01:22:00,51.0,43.0,29.71,SSE,153,8.0,10.0,73,0.00,,,0.02,,2013-03-11 05:22:00,
2013-03-11 01:32:00,51.0,43.0,29.70,SSE,152,10.0,11.0,75,0.00,,,0.02,,2013-03-11 05:32:00,
2013-03-11 01:43:00,51.0,43.0,29.70,SSE,152,10.0,11.0,75,0.00,,,0.02,,2013-03-11 05:43:00,
2013-03-11 01:52:00,50.0,42.0,29.69,SSE,165,7.0,11.0,75,0.00,,,0.02,,2013-03-11 05:52:00,
2013-03-11 02:02:00,50.0,42.0,29.69,SSE,159,8.0,12.0,74,0.00,,,0.02,,2013-03-11 06:02:00,
2013-03-11 02:12:00,50.0,42.0,29.69,SSE,159,8.0,12.0,74,0.00,,,0.02,,2013-03-11 06:12:00,
2013-03-11 02:22:00,51.0,43.0,29.70,South,178,11.0,14.0,74,0.00,,,0.02,,2013-03-11 06:22:00,
2013-03-11 02:32:00,52.0,43.0,29.69,South,186,18.0,21.0,72,0.00,,,0.02,,2013-03-11 06:32:00,
2013-03-11 02:42:00,52.0,43.0,29.69,South,186,18.0,21.0,72,0.00,,,0.02,,2013-03-11 06:42:00,
2013-03-11 02:53:00,53.0,45.0,29.69,South,176,19.0,28.0,73,0.00,,,0.02,,2013-03-11 06:53:00,
2013-03-11 03:03:00,54.0,46.0,29.68,SSW,194,26.0,34.0,75,0.00,,,0.02,,2013-03-11 07:03:00,
2013-03-11 03:12:00,54.0,46.0,29.68,SSW,194,26.0,34.0,75,0.00,,,0.02,,2013-03-11 07:12:00,
2013-03-11 03:22:00,54.0,47.0,29.68,South,188,24.0,34.0,76,0.00,,,0.02,,2013-03-11 07:22:00,
2013-03-11 03:32:00,54.0,47.0,29.68,SSW,200,24.0,33.0,76,0.00,,,0.02,,2013-03-11 07:32:00,
2013-03-11 03:42:00,54.0,47.0,29.68,SSW,200,24.0,33.0,76,0.00,,,0.02,,2013-03-11 07:42:00,
2013-03-11 03:52:00,53.0,46.0,29.68,SSW,203,16.0,27.0,77,0.00,,,0.02,,2013-03-11 07:52:00,
2013-03-11 04:02:00,53.0,46.0,29.67,SSW,192,27.0,33.0,78,0.00,,,0.02,,2013-03-11 08:02:00,
2013-03-11 04:12:00,53.0,46.0,29.67,SSW,192,27.0,33.0,78,0.00,,,0.02,,2013-03-11 08:12:00,
2013-03-11 04:22:00,52.0,47.0,29.68,SSW,203,16.0,29.0,83,0.00,,,0.02,,2013-03-11 08:22:00,
2013-03-11 04:32:00,51.0,46.0,29.67,SSW,193,16.0,19.0,83,0.00,,,0.02,,2013-03-11 08:32:00,
2013-03-11 04:42:00,51.0,46.0,29.67,SSW,193,16.0,19.0,83,0.00,,,0.02,,2013-03-11 08:42:00,
2013-03-11 04:52:00,51.0,47.0,29.67,SSW,195,19.0,32.0,86,0.00,,,0.01,,2013-03-11 08:52:00,
2013-03-11 05:02:00,50.0,47.0,29.67,SW,215,14.0,25.0,89,0.00,,,0.01,,2013-03-11 09:02:00,
2013-03-11 05:12:00,50.0,47.0,29.67,SW,215,14.0,25.0,89,0.00,,,0.01,,2013-03-11 09:12:00,
2013-03-11 05:23:00,50.0,47.0,29.67,SW,215,14.0,25.0,89,0.00,,,0.01,,2013-03-11 09:23:00,
2013-03-11 05:32:00,49.0,47.0,29.66,SSW,196,8.0,12.0,92,0.00,,,0.01,,2013-03-11 09:32:00,
2013-03-11 05:42:00,49.0,47.0,29.66,SSW,196,8.0,12.0,92,0.00,,,0.01,,2013-03-11 09:42:00,
2013-03-11 05:53:00,48.0,46.0,29.65,SSW,192,13.0,17.0,93,0.01,,,0.02,,2013-03-11 09:53:00,
2013-03-11 06:02:00,48.0,46.0,29.66,SSW,199,13.0,16.0,94,0.01,,,0.02,,2013-03-11 10:02:00,
2013-03-11 06:12:00,48.0,46.0,29.66,SSW,199,13.0,16.0,94,0.01,,,0.02,,2013-03-11 10:12:00,
2013-03-11 06:22:00,48.0,46.0,29.66,SSW,199,13.0,16.0,94,0.01,,,0.02,,2013-03-11 10:22:00,
2013-03-11 06:32:00,48.0,46.0,29.65,South,190,9.0,13.0,94,0.01,,,0.02,,2013-03-11 10:32:00,
2013-03-11 06:42:00,48.0,46.0,29.65,South,190,9.0,13.0,94,0.01,,,0.02,,2013-03-11 10:42:00,
2013-03-11 06:53:00,48.0,46.0,29.64,South,176,8.0,11.0,94,0.00,,,0.02,,2013-03-11 10:53:00,
2013-03-11 07:02:00,48.0,46.0,29.65,South,175,10.0,16.0,94,0.00,,,0.02,,2013-03-11 11:02:00,
2013-03-11 07:12:00,48.0,46.0,29.65,South,175,10.0,16.0,94,0.00,,,0.02,,2013-03-11 11:12:00,
2013-03-11 07:22:00,48.0,47.0,29.64,South,178,7.0,13.0,95,0.01,,,0.03,,2013-03-11 11:22:00,
2013-03-11 07:33:00,48.0,47.0,29.66,SSW,195,8.0,14.0,95,0.01,,,0.03,,2013-03-11 11:33:00,
2013-03-11 07:42:00,48.0,47.0,29.66,SSW,195,8.0,14.0,95,0.01,,,0.03,,2013-03-11 11:42:00,
2013-03-11 07:53:00,48.0,47.0,29.67,SSW,213,9.0,12.0,95,0.01,,,0.03,,2013-03-11 11:53:00,
2013-03-11 08:02:00,48.0,47.0,29.66,SW,227,7.0,10.0,96,0.01,,,0.03,,2013-03-11 12:02:00,
2013-03-11 08:12:00,48.0,47.0,29.66,SW,227,7.0,10.0,96,0.01,,,0.03,,2013-03-11 12:12:00,
2013-03-11 08:22:00,48.0,47.0,29.66,SW,222,11.0,14.0,96,0.00,,,0.03,,2013-03-11 12:22:00,
2013-03-11 08:32:00,48.0,47.0,29.65,SW,215,10.0,14.0,96,0.00,,,0.03,,2013-03-11 12:32:00,
2013-03-11 08:43:00,48.0,47.0,29.65,SW,215,10.0,14.0,96,0.00,,,0.03,,2013-03-11 12:43:00,
2013-03-11 08:53:00,48.0,47.0,29.65,SSW,205,6.0,10.0,96,0.00,,,0.03,,2013-03-11 12:53:00,
2013-03-11 09:02:00,48.0,47.0,29.65,SSW,192,6.0,10.0,95,0.00,,,0.03,,2013-03-11 13:02:00,
2013-03-11 09:12:00,48.0,47.0,29.65,SSW,192,6.0,10.0,95,0.00,,,0.03,,2013-03-11 13:12:00,
2013-03-11 09:22:00,48.0,47.0,29.65,SSW,192,7.0,9.0,95,0.00,,,0.03,,2013-03-11 13:22:00,
2013-03-11 09:32:00,48.0,47.0,29.65,SE,142,6.0,9.0,96,0.00,,,0.03,,2013-03-11 13:32:00,
2013-03-11 09:42:00,48.0,47.0,29.65,SE,142,6.0,9.0,96,0.00,,,0.03,,2013-03-11 13:42:00,
2013-03-11 09:53:00,48.0,47.0,29.65,South,175,6.0,8.0,96,0.00,,,0.03,,2013-03-11 13:53:00,
2013-03-11 10:02:00,48.0,47.0,29.64,SSE,156,7.0,10.0,96,0.00,,,0.03,,2013-03-11 14:02:00,
2013-03-11 10:12:00,48.0,47.0,29.64,SSE,156,7.0,10.0,96,0.00,,,0.03,,2013-03-11 14:12:00,
2013-03-11 10:22:00,48.0,47.0,29.64,South,188,5.0,10.0,96,0.00,,,0.03,,2013-03-11 14:22:00,
2013-03-11 10:33:00,48.0,47.0,29.62,South,188,4.0,9.0,96,0.00,,,0.03,,2013-03-11 14:33:00,
2013-03-11 10:42:00,48.0,47.0,29.62,South,188,4.0,9.0,96,0.00,,,0.03,,2013-03-11 14:42:00,
2013-03-11 10:53:00,48.0,47.0,29.62,South,187,5.0,5.0,96,0.00,,,0.03,,2013-03-11 14:53:00,
2013-03-11 11:02:00,48.0,47.0,29.61,South,170,5.0,7.0,96,0.00,,,0.03,,2013-03-11 15:02:00,
2013-03-11 11:13:00,48.0,47.0,29.61,South,170,5.0,7.0,96,0.00,,,0.03,,2013-03-11 15:13:00,
2013-03-11 11:22:00,49.0,48.0,29.59,SSE,149,5.0,9.0,96,0.00,,,0.03,,2013-03-11 15:22:00,
2013-03-11 11:32:00,49.0,48.0,29.59,SSW,195,4.0,6.0,96,0.00,,,0.03,,2013-03-11 15:32:00,
2013-03-11 11:42:00,49.0,48.0,29.59,SSW,195,4.0,6.0,96,0.00,,,0.03,,2013-03-11 15:42:00,
2013-03-11 11:53:00,49.0,48.0,29.58,SSW,202,6.0,10.0,96,0.01,,,0.04,,2013-03-11 15:53:00,
2013-03-11 12:02:00,49.0,48.0,29.57,SSW,202,4.0,7.0,96,0.01,,,0.04,,2013-03-11 16:02:00,
2013-03-11 12:13:00,49.0,48.0,29.57,SSW,202,4.0,7.0,96,0.01,,,0.04,,2013-03-11 16:13:00,
2013-03-11 12:22:00,49.0,48.0,29.57,WSW,240,12.0,15.0,96,0.03,,,0.06,,2013-03-11 16:22:00,
2013-03-11 12:32:00,49.0,48.0,29.57,SW,232,12.0,16.0,96,0.05,,,0.08,,2013-03-11 16:32:00,
2013-03-11 12:43:00,49.0,48.0,29.57,SW,232,12.0,16.0,96,0.05,,,0.08,,2013-03-11 16:43:00,
2013-03-11 12:52:00,49.0,48.0,29.57,SW,232,12.0,16.0,96,0.05,,,0.08,,2013-03-11 16:52:00,
2013-03-11 13:02:00,49.0,48.0,29.55,WSW,240,9.0,17.0,96,0.05,,,0.09,,2013-03-11 17:02:00,
2013-03-11 13:15:00,49.0,48.0,29.55,WSW,240,9.0,17.0,96,0.05,,,0.09,,2013-03-11 17:15:00,
2013-03-11 13:28:00,49.0,48.0,29.55,WSW,250,13.0,16.0,95,0.03,,,0.09,,2013-03-11 17:28:00,
2013-03-11 13:37:00,48.0,46.0,29.55,West,272,12.0,19.0,94,0.02,,,0.10,,2013-03-11 17:37:00,
2013-03-11 13:53:00,48.0,46.0,29.56,West,267,14.0,20.0,94,0.01,,,0.10,,2013-03-11 17:53:00,
2013-03-11 14:02:00,47.0,45.0,29.57,West,267,14.0,21.0,93,0.01,,,0.10,,2013-03-11 18:02:00,
2013-03-11 14:12:00,47.0,45.0,29.57,West,267,14.0,21.0,93,0.01,,,0.10,,2013-03-11 18:12:00,
2013-03-11 14:23:00,46.0,44.0,29.56,West,272,15.0,19.0,94,0.02,,,0.11,,2013-03-11 18:23:00,
2013-03-11 14:32:00,45.0,43.0,29.57,West,277,16.0,19.0,94,0.02,,,0.12,,2013-03-11 18:32:00,
2013-03-11 14:42:00,45.0,43.0,29.57,West,277,16.0,19.0,94,0.02,,,0.12,,2013-03-11 18:42:00,
2013-03-11 14:53:00,44.0,42.0,29.57,West,271,14.0,23.0,93,0.04,,,0.14,,2013-03-11 18:53:00,
2013-03-11 15:02:00,43.0,41.0,29.57,WSW,257,18.0,22.0,94,0.05,,,0.15,,2013-03-11 19:02:00,
2013-03-11 15:12:00,43.0,41.0,29.57,WSW,257,18.0,22.0,94,0.05,,,0.15,,2013-03-11 19:12:00,
2013-03-11 15:23:00,42.0,40.0,29.57,WSW,243,12.0,23.0,93,0.04,,,0.15,,2013-03-11 19:23:00,
2013-03-11 15:33:00,42.0,40.0,29.56,WSW,258,15.0,19.0,93,0.03,,,0.15,,2013-03-11 19:33:00,
2013-03-11 15:42:00,42.0,40.0,29.56,WSW,258,15.0,19.0,93,0.03,,,0.15,,2013-03-11 19:42:00,
2013-03-11 15:53:00,42.0,40.0,29.57,WSW,250,16.0,24.0,92,0.01,,,0.15,,2013-03-11 19:53:00,
2013-03-11 16:02:00,42.0,39.0,29.57,WSW,257,21.0,28.0,90,0.00,,,0.15,,2013-03-11 20:02:00,
2013-03-11 16:12:00,42.0,39.0,29.57,WSW,257,21.0,28.0,90,0.00,,,0.15,,2013-03-11 20:12:00,
2013-03-11 16:22:00,43.0,39.0,29.57,WSW,256,20.0,30.0,85,0.00,,,0.15,,2013-03-11 20:22:00,
2013-03-11 16:32:00,42.0,38.0,29.57,WSW,254,18.0,28.0,84,0.00,,,0.15,,2013-03-11 20:32:00,
2013-03-11 16:43:00,42.0,38.0,29.57,WSW,254,18.0,28.0,84,0.00,,,0.15,,2013-03-11 20:43:00,
2013-03-11 16:53:00,42.0,38.0,29.59,WSW,248,24.0,28.0,85,0.00,,,0.15,,2013-03-11 20:53:00,
2013-03-11 17:03:00,42.0,38.0,29.60,WSW,250,17.0,28.0,85,0.00,,,0.15,,2013-03-11 21:03:00,
2013-03-11 17:13:00,42.0,38.0,29.60,WSW,250,17.0,28.0,85,0.00,,,0.15,,2013-03-11 21:13:00,
2013-03-11 17:22:00,41.0,36.0,29.61,WSW,253,21.0,35.0,82,0.00,,,0.15,,2013-03-11 21:22:00,
2013-03-11 17:32:00,40.0,36.0,29.62,WSW,258,16.0,29.0,84,0.00,,,0.15,,2013-03-11 21:32:00,
2013-03-11 17:44:00,40.0,36.0,29.62,WSW,258,16.0,29.0,84,0.00,,,0.15,,2013-03-11 21:44:00,
2013-03-11 17:53:00,40.0,36.0,29.62,WSW,249,24.0,34.0,84,0.00,,,0.15,,2013-03-11 21:53:00,
2013-03-11 18:03:00,38.0,34.0,29.64,WSW,246,23.0,31.0,87,0.00,,,0.15,,2013-03-11 22:03:00,
2013-03-11 18:12:00,38.0,34.0,29.64,WSW,246,23.0,31.0,87,0.00,,,0.15,,2013-03-11 22:12:00,
2013-03-11 18:22:00,37.0,34.0,29.65,WSW,254,18.0,29.0,88,0.00,,,0.15,,2013-03-11 22:22:00,
2013-03-11 18:32:00,37.0,34.0,29.65,West,260,21.0,28.0,88,0.00,,,0.15,,2013-03-11 22:32:00,
2013-03-11 18:43:00,37.0,34.0,29.65,West,260,21.0,28.0,88,0.00,,,0.15,,2013-03-11 22:43:00,
2013-03-11 18:53:00,37.0,34.0,29.65,WSW,240,20.0,25.0,87,0.00,,,0.15,,2013-03-11 22:53:00,
2013-03-11 19:03:00,37.0,34.0,29.66,WSW,256,18.0,28.0,87,0.00,,,0.15,,2013-03-11 23:03:00,
2013-03-11 19:12:00,37.0,34.0,29.66,WSW,256,18.0,28.0,87,0.00,,,0.15,,2013-03-11 23:12:00,
2013-03-11 19:22:00,36.0,33.0,29.67,WSW,248,14.0,24.0,88,0.00,,,0.15,,2013-03-11 23:22:00,
2013-03-11 19:32:00,36.0,33.0,29.67,WSW,245,18.0,25.0,90,0.00,,,0.15,,2013-03-11 23:32:00,
2013-03-11 19:43:00,36.0,33.0,29.67,WSW,245,18.0,25.0,90,0.00,,,0.15,,2013-03-11 23:43:00,
2013-03-11 19:54:00,35.0,32.0,29.67,WSW,257,15.0,26.0,90,0.00,,,0.15,,2013-03-11 23:54:00,
2013-03-11 20:02:00,35.0,32.0,29.68,WSW,255,13.0,30.0,89,0.00,,,0.15,,2013-03-12 00:02:00,
2013-03-11 20:12:00,35.0,32.0,29.68,WSW,255,13.0,30.0,89,0.00,,,0.15,,2013-03-12 00:12:00,
2013-03-11 20:23:00,35.0,32.0,29.68,WSW,250,17.0,24.0,88,0.00,,,0.15,,2013-03-12 00:23:00,
2013-03-11 20:33:00,35.0,32.0,29.70,West,264,19.0,28.0,88,0.00,,,0.15,,2013-03-12 00:33:00,
2013-03-11 20:42:00,35.0,32.0,29.70,West,264,19.0,28.0,88,0.00,,,0.15,,2013-03-12 00:42:00,
2013-03-11 20:54:00,35.0,32.0,29.70,West,261,14.0,21.0,88,0.00,,,0.15,,2013-03-12 00:54:00,
2013-03-11 21:02:00,35.0,32.0,29.71,WSW,254,20.0,28.0,87,0.00,,,0.15,,2013-03-12 01:02:00,
2013-03-11 21:12:00,35.0,32.0,29.71,WSW,254,20.0,28.0,87,0.00,,,0.15,,2013-03-12 01:12:00,
2013-03-11 21:22:00,35.0,32.0,29.72,WSW,255,18.0,30.0,88,0.00,,,0.15,,2013-03-12 01:22:00,
2013-03-11 21:33:00,34.0,31.0,29.72,WSW,243,15.0,25.0,89,0.00,,,0.15,,2013-03-12 01:33:00,
2013-03-11 21:42:00,34.0,31.0,29.72,WSW,243,15.0,25.0,89,0.00,,,0.15,,2013-03-12 01:42:00,
2013-03-11 21:53:00,34.0,31.0,29.73,WSW,257,20.0,24.0,89,0.00,,,0.15,,2013-03-12 01:53:00,
2013-03-11 22:02:00,34.0,31.0,29.73,West,259,14.0,24.0,89,0.00,,,0.15,,2013-03-12 02:02:00,
2013-03-11 22:12:00,34.0,31.0,29.73,West,259,14.0,24.0,89,0.00,,,0.15,,2013-03-12 02:12:00,
2013-03-11 22:22:00,34.0,31.0,29.74,WSW,250,17.0,22.0,89,0.00,,,0.15,,2013-03-12 02:22:00,
2013-03-11 22:32:00,34.0,31.0,29.75,WSW,248,20.0,28.0,89,0.00,,,0.15,,2013-03-12 02:32:00,
2013-03-11 22:42:00,34.0,31.0,29.75,WSW,248,20.0,28.0,89,0.00,,,0.15,,2013-03-12 02:42:00,
2013-03-11 22:52:00,34.0,31.0,29.75,WSW,242,19.0,24.0,89,0.00,,,0.14,,2013-03-12 02:52:00,
2013-03-11 23:02:00,34.0,31.0,29.76,West,262,18.0,26.0,89,0.00,,,0.14,,2013-03-12 03:02:00,
2013-03-11 23:12:00,34.0,31.0,29.76,West,262,18.0,26.0,89,0.00,,,0.14,,2013-03-12 03:12:00,
2013-03-11 23:22:00,34.0,31.0,29.76,West,261,21.0,28.0,90,0.00,,,0.14,,2013-03-12 03:22:00,
2013-03-11 23:32:00,34.0,31.0,29.77,West,263,10.0,26.0,90,0.00,,,0.14,,2013-03-12 03:32:00,
2013-03-11 23:42:00,34.0,31.0,29.77,West,263,10.0,26.0,90,0.00,,,0.14,,2013-03-12 03:42:00,
2013-03-11 23:53:00,34.0,32.0,29.77,WSW,242,15.0,20.0,91,0.00,,,0.14,,2013-03-12 03:53:00,